This is the latest recevied weather packets stored in our database for station/object W0VI. If no packets are shown the sender has not sent any weather packets the latest 10 day(s).
| Time | Temp. | Humidity | Pressure | Rain* | Wind** | Luminosity | Snow |
|---|---|---|---|---|---|---|---|
| 1777830400 | 20° C | 30% | 1007.2 hPa | 0 mm | - | 673 W/m² | - |
| 1777830097 | 19.44° C | 33% | 1007.2 hPa | 0 mm | - | 670 W/m² | - |
| 1777829792 | 19.44° C | 34% | 1006.9 hPa | 0 mm | - | 689 W/m² | - |
| 1777829489 | 19.44° C | 34% | 1007 hPa | 0 mm | - | 681 W/m² | - |
| 1777829186 | 19.44° C | 38% | 1007.1 hPa | 0 mm | - | 652 W/m² | - |
| 1777828884 | 19.44° C | 36% | 1007.3 hPa | 0 mm | - | 654 W/m² | - |
| 1777828580 | 18.89° C | 38% | 1007.1 hPa | 0 mm | - | 668 W/m² | - |
| 1777828277 | 18.89° C | 34% | 1007.2 hPa | 0 mm | - | 664 W/m² | - |
| 1777827974 | 18.89° C | 36% | 1007.1 hPa | 0 mm | - | 668 W/m² | - |
| 1777827670 | 19.44° C | 39% | 1007.2 hPa | 0 mm | - | 673 W/m² | - |
| 1777827368 | 18.89° C | 40% | 1007.3 hPa | 0 mm | - | 670 W/m² | - |
| 1777827064 | 19.44° C | 39% | 1007.2 hPa | 0 mm | - | 704 W/m² | - |
| 1777826761 | 19.44° C | 39% | 1007.2 hPa | 0 mm | - | 714 W/m² | - |
| 1777826458 | 19.44° C | 41% | 1007 hPa | 0 mm | - | 732 W/m² | - |
| 1777826149 | 19.44° C | 39% | 1007.4 hPa | 0 mm | - | 737 W/m² | - |
| 1777825846 | 19.44° C | 38% | 1007.1 hPa | 0 mm | - | 776 W/m² | - |
| 1777825543 | 18.89° C | 44% | 1007 hPa | 0 mm | - | 737 W/m² | - |
| 1777825241 | 19.44° C | 41% | 1007.1 hPa | 0 mm | - | 734 W/m² | - |
| 1777824937 | 18.89° C | 41% | 1006.9 hPa | 0 mm | - | 719 W/m² | - |
| 1777824633 | 19.44° C | 42% | 1006.9 hPa | 0 mm | - | 704 W/m² | - |
| 1777824331 | 18.89° C | 44% | 1006.8 hPa | 0 mm | - | 728 W/m² | - |
| 1777824026 | 18.89° C | 44% | 1006.8 hPa | 0 mm | - | 740 W/m² | - |
| 1777823723 | 18.89° C | 43% | 1006.9 hPa | 0 mm | - | 725 W/m² | - |
| 1777823420 | 19.44° C | 42% | 1007 hPa | 0 mm | - | 735 W/m² | - |
| 1777823118 | 18.33° C | 43% | 1006.9 hPa | 0 mm | - | 715 W/m² | - |
* Rain latest hour (hover to see other rain measurements)
** Current wind speed in m/s (hover to see current wind gust speed)